Regional Weather Roundup
Issued by NWS

Home | Current Version | Previous Version | Graphics & Text | Print | Product List | Glossary On
Versions: 1 2 3 4 5 6 7 8 9 10 11 12 13 14 15 16 17 18 19 20 21 22 23 24 25 26 27 28 29 30 31 32 33 34 35 36 37 38 39 40 41 42 43 44 45 46 47 48 49 50
000
ASUS43 KFSD 060310
RWRSD

WEATHER ROUNDUP FOR SOUTH DAKOTA
NATIONAL WEATHER SERVICE SIOUX FALLS SD
900 PM CST THU MAR 05 2015

NOTE: "FAIR" INDICATES FEW OR NO CLOUDS BELOW 12,000 FEET WITH NO
SIGNIFICANT WEATHER AND/OR OBSTRUCTIONS TO VISIBILITY.


SDZ001>005-009-010-012>017-060400-
NORTHWEST AND NORTH CENTRAL SOUTH DAKOTA

CITY           SKY/WX    TMP DP  RH WIND       PRES   REMARKS
BUFFALO          N/A     31  13  47 W7        30.03S WCI  24
FAITH            N/A     29  10  45 W8        30.09F WCI  21
MOBRIDGE       CLEAR     24  14  65 SE8       30.06F WCI  15
$$

SDZ012>016-024>037-041>051-057-063-072>074-060400-
SOUTHWEST AND SOUTH CENTRAL SOUTH DAKOTA

CITY           SKY/WX    TMP DP  RH WIND       PRES   REMARKS
RAPID CTY ARPT CLEAR     32  15  49 W5        30.14R WCI  27
PIERRE         CLEAR     20  15  81 SW5       30.11R WCI  13
CUSTER         CLEAR     26  13  57 W8        30.12S WCI  18
ELLSWORTH AFB  CLEAR     31  17  56 W5        30.12S WCI  26
PHILIP         CLEAR     27  15  61 W9        30.14R WCI  18
PINE RIDGE     CLEAR     33  21  61 W6        30.18R WCI  28
SPEARFISH      FAIR      36  16  44 W13       30.13S
WINNER         FAIR      33  16  49 SW9       30.12F WCI  25
$$

SDZ004>011-016>023-039-040-060400-
NORTHEAST SOUTH DAKOTA

CITY           SKY/WX    TMP DP  RH WIND       PRES   REMARKS
ABERDEEN       CLEAR     12   6  77 S6        30.12F WCI   3
WATERTOWN      CLEAR     15   6  67 S9        30.13F WCI   3
$$

SDZ017-020-022-023-036>040-048>070-060400-
SOUTHEAST SOUTH DAKOTA

CITY           SKY/WX    TMP DP  RH WIND       PRES   REMARKS
SIOUX FALLS    CLEAR     24   7  48 S14       30.21F WCI  12
HURON          CLEAR     25   7  46 S9        30.14F WCI  15
CHAMBERLAIN    CLEAR     22  13  67 SW3       30.12F
MITCHELL       CLEAR     25   7  46 SE10      30.17F WCI  15
YANKTON        PTCLDY    25   5  42 SE5       30.23F WCI  19
$$

ABBREVIATIONS USED IN REMARKS
   TC - TEMPERATURE IN CELSIUS
  WCI - WIND CHILL INDEX
   HX - HEAT INDEX
  VSB - VISIBILITY




USA.gov is the U.S. government's official web portal to all federal, state and local government web resources and services.